Terminal Aerodrome Forecast
Issued by NWS Cleveland, OH

Home | Current Version | Previous Version | Graphics & Text | Print | Product List | Glossary On
Versions: 1 2 3 4 5 6 7 8 9 10 11 12 13 14 15 16 17 18 19 20 21
000
FTUS41 KCLE 161459 AAA
TAFTOL
TAF AMD
KTOL 161459Z 1615/1712 28014G22KT P6SM OVC030
     FM162000 30014G22KT P6SM OVC035
     FM162300 30008KT P6SM SCT035=

USA.gov is the U.S. government's official web portal to all federal, state and local government web resources and services.